Rbgn^[z[y[W
メイン
   新天体発見情報
     Comet C/2023 T2 (Borisov)
投稿するにはまず登録を

スレッド表示 | 新しいものから 前のトピック | 次のトピック | 下へ
投稿者 スレッド
佐藤裕久
投稿日時: 2023-10-28 22:08
モデレータ
登録日: 2005-6-12
居住地: 日本
投稿: 2462
オンライン
Comet C/2023 T2 (Borisov)

Gennady Borisovの通報によると、10月14日、MARGO 天文台 (Nauchnij近郊, クリミヤ)の0.50-m 
f/1.9アストログラフで得たCCD画像から彗星を発見した。
この天体は、約4"の拡散したコマが見えるが尾はない。Borisovが0'.5の範囲で測定した全G光度
は19.4等であった
小惑星センターのPCCP webpageに公表後、佐藤英貴氏(東京都文京区、10月16.1日UT, 60-秒露出
12枚のスタック, 0.51-m f/6.8 アストログラフ, Utah Desert Remote 天文台, Beryl Junction
近郊, ユタ州, 米国, 遠隔操作:強く集光した6"のコマが見えるが尾はない。4".9の円形範囲で
測定した光度は19.3等であった)らCCD観測者によって彗星状と観測された。

彗星機能の報告は次のとおり、

OC   Date        Reporter           Coma    Tail    PA          Exposures
L76  2023-10-14  E. Romas           5"
095  2023-10-14  V. Rumyantsev      8"       12"    230-260
J95  2023-10-14  P. Birtwhistle     6"       11"    125          80x10s
U94  2023-10-16  H. Sato            6"                           12x60s
G00  2023-10-16  M. Jaeger          9"       11"    114
204  2023-10-17  A. Aletti          6"                           62x30s
G00  2023-10-17  M. Jaeger          9"       11"    124          10x90s
W62  2023-10-19  J. Maikner        15"       25"    120          30x60s
H01  2023-10-19  B. Ryan            6"       18"     90-130
F51  2023-10-19  R. Weryk           0".7      5"    120           2x60s

発見位置は次のとおり、

     2023 UT             R.A. (2000) Decl.       Mag.   Observer
     Oct. 14.69480   21 21 48.86   +75 33 26.3   19.4   Borisov
          14.69797   21 21 47.94   +75 33 26.4   19.1     "
          14.70124   21 21 47.20   +75 33 27.1   19.2     "
          14.73236   21 21 38.97   +75 33 31.8   19.6     "
          14.73663   21 21 37.87   +75 33 31.9   19.7     "
          14.74090   21 21 36.75   +75 33 32.4   19.6     "
          14.76799   21 21 29.72   +75 33 35.5   19.7     "
          14.77636   21 21 27.54   +75 33 36.6   19.6     "

MPCの楕円軌道要素、位置推算表は次のとおり、

Orbital elements:
    C/2023 T2 (Borisov)                                                         
Epoch 2023 Sept. 13.0 TT = JDT 2460200.5                                        
T 2023 Dec. 22.16108 TT                                 Rudenko                 
q   2.0055169            (2000.0)            P               Q                  
z  +0.0012831      Peri.  110.61346     +0.15405352     -0.84938536             
 +/-0.0016021      Node   317.79694     +0.35693283     +0.52422831             
e   0.9974267      Incl.   48.71548     +0.92133950     -0.06106706             
From 156 observations 2023 Oct. 14-20, mean residual 0".5.                      
                                                                                
Ephemeris:
Date    TT    R. A. (2000) Decl.     Delta      r    Elong.  Phase   m1
2023 09 21    23 03 40.0 +71 39 43   1.7860  2.2897   106.9    24.8  19.4
...
2023 10 06    22 00 50.1 +74 52 02   1.7129  2.2099   106.1    25.8  19.1
...
2023 10 14    21 24 46.8 +75 31 46   1.6820  2.1717   105.4    26.3  19.0
...
2023 10 20    21 00 43.8 +75 38 04   1.6615  2.1454   104.9    26.7  18.9
2023 10 21    20 57 07.3 +75 37 37   1.6583  2.1411   104.8    26.7  18.9
2023 10 22    20 53 38.7 +75 36 50   1.6551  2.1370   104.7    26.8  18.9
...
2023 10 28    20 35 42.9 +75 26 29   1.6367  2.1133   104.2    27.1  18.8
...
2023 11 05    20 20 02.2 +75 05 16   1.6137  2.0850   103.7    27.5  18.7
...
2023 11 20    20 15 17.7 +74 37 59   1.5730  2.0430   103.4    28.1  18.6

(MPEC 2023-U162、CBET 5304)

スレッド表示 | 新しいものから 前のトピック | 次のトピック | トップ

投稿するにはまず登録を
 
© 1999 Tsutomu Seki.